THA2965 VTSP-VTBS

Flight info

Callsign THA2965
Flight time 1h 1m
Altitude 35000
Route EMRIT Y99 NONEL Y98 LEBIM
Aircraft A320/M-SDE3FGHIRWY/LB1

Departure

Time 2026-05-05 17:53
Airport Phuket International Airport (VTSP)

Arrival

Time 2026-05-05 18:54
Airport Suvarnabhumi Airport (VTBS)
Time Latitude Longitude Altitude Speed Heading
2026-05-05 17:30 8.10904 98.30550 28 ft 0 kts 105°
2026-05-05 17:44 8.10905 98.30545 27 ft 4 kts 105°
2026-05-05 17:44 8.10913 98.30519 27 ft 4 kts 105°
2026-05-05 17:44 8.10919 98.30492 27 ft 4 kts 98°
2026-05-05 17:44 8.10919 98.30467 27 ft 4 kts 61°
2026-05-05 17:45 8.10903 98.30456 27 ft 4 kts 14°
2026-05-05 17:45 8.10893 98.30453 27 ft 0 kts 14°
2026-05-05 17:50 8.10951 98.30469 27 ft 16 kts 15°
2026-05-05 17:51 8.11035 98.30455 27 ft 14 kts 300°
2026-05-05 17:51 8.11051 98.30364 27 ft 13 kts 315°
2026-05-05 17:51 8.11132 98.30350 27 ft 11 kts 357°
2026-05-05 17:51 8.11198 98.30380 27 ft 12 kts 74°
2026-05-05 17:52 8.11204 98.30429 27 ft 0 kts 85°
2026-05-05 17:52 8.11228 98.30691 28 ft 74 kts 85°
2026-05-05 17:53 8.11297 98.31411 35 ft 129 kts 85°
2026-05-05 17:53 8.11394 98.32453 131 ft 164 kts 83°
2026-05-05 17:53 8.11489 98.33601 736 ft 165 kts 84°
2026-05-05 17:53 8.11578 98.34759 1395 ft 166 kts 84°
2026-05-05 17:54 8.11692 98.35964 1792 ft 182 kts 82°
2026-05-05 17:54 8.11829 98.37314 2052 ft 205 kts 83°
2026-05-05 17:54 8.11982 98.38824 2315 ft 229 kts 83°
2026-05-05 17:54 8.12149 98.40509 2691 ft 252 kts 83°
2026-05-05 17:55 8.12325 98.42306 3450 ft 260 kts 84°
2026-05-05 17:55 8.12671 98.44096 4358 ft 263 kts 68°
2026-05-05 17:55 8.13700 98.45630 5213 ft 269 kts 44°
2026-05-05 17:55 8.15176 98.46806 6086 ft 272 kts 39°
2026-05-05 17:56 8.16701 98.47960 6898 ft 276 kts 39°
2026-05-05 17:56 8.18249 98.49123 7682 ft 279 kts 39°
2026-05-05 17:56 8.19814 98.50304 8456 ft 283 kts 39°
2026-05-05 17:56 8.21399 98.51502 9230 ft 286 kts 39°
2026-05-05 17:57 8.23003 98.52717 9978 ft 290 kts 40°
2026-05-05 17:57 8.24655 98.53973 10330 ft 309 kts 39°
2026-05-05 17:57 8.26431 98.55329 10482 ft 331 kts 39°
2026-05-05 17:57 8.28335 98.56781 10601 ft 353 kts 39°
2026-05-05 17:58 8.30346 98.58312 10718 ft 372 kts 39°
2026-05-05 17:58 8.32460 98.59919 10861 ft 388 kts 39°
2026-05-05 17:58 8.34638 98.61575 11241 ft 395 kts 39°
2026-05-05 17:58 8.36848 98.63254 11770 ft 399 kts 39°
2026-05-05 17:59 8.39073 98.64947 12289 ft 402 kts 39°
2026-05-05 17:59 8.41290 98.66635 12802 ft 406 kts 39°
2026-05-05 17:59 8.43583 98.68383 13321 ft 409 kts 39°
2026-05-05 17:59 8.45838 98.70098 13800 ft 413 kts 39°
2026-05-05 18:00 8.48137 98.71846 14249 ft 416 kts 38°
2026-05-05 18:00 8.50461 98.73615 14675 ft 420 kts 38°
2026-05-05 18:00 8.52801 98.75397 15107 ft 423 kts 38°
2026-05-05 18:00 8.55161 98.77196 15535 ft 426 kts 38°
2026-05-05 18:01 8.57533 98.79007 15978 ft 429 kts 38°
2026-05-05 18:01 8.59920 98.80826 16399 ft 432 kts 38°
2026-05-05 18:01 8.62328 98.82660 16817 ft 434 kts 38°
2026-05-05 18:01 8.64749 98.84504 17233 ft 437 kts 38°
2026-05-05 18:02 8.67182 98.86360 17650 ft 440 kts 38°
2026-05-05 18:02 8.69629 98.88227 18061 ft 442 kts 38°
2026-05-05 18:02 8.71259 98.89470 18298 ft 444 kts 38°
2026-05-05 18:02 8.73731 98.91359 18647 ft 446 kts 38°
2026-05-05 18:03 8.76212 98.93255 18991 ft 449 kts 38°
2026-05-05 18:03 8.78710 98.95164 19323 ft 451 kts 38°
2026-05-05 18:03 8.81220 98.97078 19669 ft 453 kts 38°
2026-05-05 18:03 8.83739 98.98997 19998 ft 455 kts 38°
2026-05-05 18:04 8.86276 99.00933 20325 ft 457 kts 38°
2026-05-05 18:04 8.88817 99.02876 20650 ft 459 kts 38°
2026-05-05 18:04 8.91373 99.04831 20972 ft 462 kts 38°
2026-05-05 18:04 8.94776 99.07434 21385 ft 464 kts 38°
2026-05-05 18:05 8.97356 99.09406 21664 ft 466 kts 38°
2026-05-05 18:05 8.99105 99.10744 21836 ft 468 kts 38°
2026-05-05 18:05 9.01707 99.12733 22104 ft 470 kts 38°
2026-05-05 18:05 9.04321 99.14730 22363 ft 471 kts 38°
2026-05-05 18:06 9.06940 99.16730 22605 ft 473 kts 38°
2026-05-05 18:06 9.08682 99.18061 22747 ft 474 kts 38°
2026-05-05 18:06 9.12212 99.20762 23061 ft 476 kts 38°
2026-05-05 18:06 9.14856 99.22787 23275 ft 478 kts 38°
2026-05-05 18:07 9.17478 99.24791 23491 ft 480 kts 38°
2026-05-05 18:07 9.20143 99.26831 23710 ft 480 kts 38°
2026-05-05 18:07 9.22803 99.28870 24005 ft 479 kts 38°
2026-05-05 18:07 9.25456 99.30905 24303 ft 478 kts 38°
2026-05-05 18:08 9.28105 99.32938 24620 ft 477 kts 38°
2026-05-05 18:08 9.30753 99.34969 24917 ft 477 kts 38°
2026-05-05 18:08 9.33396 99.36996 25235 ft 476 kts 38°
2026-05-05 18:08 9.36032 99.39016 25564 ft 475 kts 38°
2026-05-05 18:09 9.38665 99.41032 25901 ft 474 kts 38°
2026-05-05 18:09 9.41381 99.42929 26235 ft 474 kts 31°
2026-05-05 18:09 9.44359 99.44362 26570 ft 475 kts 21°
2026-05-05 18:09 9.47508 99.45378 26910 ft 475 kts 18°
2026-05-05 18:10 9.50666 99.46353 27267 ft 474 kts 18°
2026-05-05 18:10 9.53819 99.47330 27628 ft 473 kts 18°
2026-05-05 18:10 9.56972 99.48296 27904 ft 475 kts 17°
2026-05-05 18:10 9.60154 99.49221 28179 ft 476 kts 17°
2026-05-05 18:11 9.63351 99.50106 28527 ft 476 kts 16°
2026-05-05 18:11 9.66556 99.50972 28903 ft 476 kts 16°
2026-05-05 18:11 9.69753 99.51833 29292 ft 475 kts 16°
2026-05-05 18:11 9.72939 99.52698 29649 ft 475 kts 16°
2026-05-05 18:12 9.76132 99.53576 30004 ft 475 kts 16°
2026-05-05 18:12 9.79316 99.54463 30334 ft 474 kts 16°
2026-05-05 18:12 9.82498 99.55355 30674 ft 474 kts 17°
2026-05-05 18:12 9.85671 99.56245 31025 ft 473 kts 17°
2026-05-05 18:13 9.88841 99.57134 31389 ft 472 kts 17°
2026-05-05 18:13 9.92001 99.58019 31741 ft 471 kts 16°
2026-05-05 18:13 9.95160 99.58902 32107 ft 470 kts 16°
2026-05-05 18:13 9.98315 99.59783 32480 ft 469 kts 16°
2026-05-05 18:14 10.01456 99.60658 32855 ft 469 kts 16°
2026-05-05 18:14 10.04602 99.61535 33230 ft 468 kts 17°
2026-05-05 18:14 10.07734 99.62409 33610 ft 468 kts 16°
2026-05-05 18:14 10.10880 99.63286 33836 ft 469 kts 16°
2026-05-05 18:15 10.14027 99.64163 33882 ft 469 kts 16°
2026-05-05 18:15 10.20320 99.65918 33882 ft 469 kts 16°
2026-05-05 18:16 10.26614 99.67677 33879 ft 469 kts 16°
2026-05-05 18:16 10.32910 99.69443 33876 ft 470 kts 17°
2026-05-05 18:17 10.39219 99.71208 33876 ft 470 kts 16°
2026-05-05 18:17 10.45536 99.72977 33876 ft 472 kts 15°
2026-05-05 18:18 10.51886 99.74756 33874 ft 474 kts 16°
2026-05-05 18:18 10.58209 99.76519 33874 ft 474 kts 15°
2026-05-05 18:19 10.64576 99.78300 33874 ft 474 kts 15°
2026-05-05 18:19 10.70936 99.80090 33874 ft 474 kts 15°
2026-05-05 18:20 10.77298 99.81874 33874 ft 475 kts 16°
2026-05-05 18:20 10.83651 99.83659 33873 ft 472 kts 15°
2026-05-05 18:21 10.89969 99.85432 33871 ft 471 kts 15°
2026-05-05 18:21 10.96284 99.87199 33871 ft 471 kts 15°
2026-05-05 18:22 11.02597 99.88969 33871 ft 471 kts 15°
2026-05-05 18:22 11.08910 99.90751 33871 ft 471 kts 15°
2026-05-05 18:23 11.15223 99.92526 33874 ft 471 kts 15°
2026-05-05 18:23 11.21558 99.94308 33871 ft 473 kts 15°
2026-05-05 18:24 11.27905 99.96093 33873 ft 473 kts 15°
2026-05-05 18:24 11.34254 99.97881 33871 ft 473 kts 15°
2026-05-05 18:25 11.40606 99.99664 33869 ft 474 kts 15°
2026-05-05 18:25 11.46960 100.01458 33871 ft 474 kts 15°
2026-05-05 18:26 11.53313 100.03258 33875 ft 474 kts 15°
2026-05-05 18:26 11.59669 100.05048 33871 ft 474 kts 15°
2026-05-05 18:27 11.66026 100.06832 33871 ft 474 kts 15°
2026-05-05 18:27 11.72385 100.08619 33871 ft 474 kts 15°
2026-05-05 18:28 11.81922 100.11324 33871 ft 474 kts 15°
2026-05-05 18:28 11.88236 100.13115 33868 ft 473 kts 15°
2026-05-05 18:29 11.94573 100.14907 33868 ft 472 kts 15°
2026-05-05 18:29 12.00910 100.16694 33868 ft 472 kts 14°
2026-05-05 18:30 12.07245 100.18486 33868 ft 473 kts 15°
2026-05-05 18:30 12.13585 100.20285 33868 ft 473 kts 15°
2026-05-05 18:31 12.19931 100.22090 33865 ft 474 kts 15°
2026-05-05 18:31 12.26282 100.23889 33863 ft 472 kts 15°
2026-05-05 18:32 12.29447 100.24784 33197 ft 473 kts 15°
2026-05-05 18:32 12.32636 100.25684 32288 ft 477 kts 15°
2026-05-05 18:32 12.35844 100.26592 31434 ft 480 kts 15°
2026-05-05 18:32 12.39068 100.27506 30606 ft 482 kts 15°
2026-05-05 18:33 12.42307 100.28428 29751 ft 483 kts 15°
2026-05-05 18:33 12.45549 100.29351 28744 ft 485 kts 15°
2026-05-05 18:33 12.48805 100.30278 27709 ft 487 kts 15°
2026-05-05 18:33 12.52079 100.31209 26654 ft 489 kts 15°
2026-05-05 18:34 12.55370 100.32145 25580 ft 492 kts 15°
2026-05-05 18:34 12.58675 100.33082 24500 ft 494 kts 16°
2026-05-05 18:34 12.61978 100.34022 23723 ft 489 kts 15°
2026-05-05 18:34 12.65236 100.34948 22898 ft 483 kts 15°
2026-05-05 18:35 12.68450 100.35861 22039 ft 476 kts 15°
2026-05-05 18:35 12.71622 100.36763 21174 ft 470 kts 15°
2026-05-05 18:35 12.74749 100.37651 20397 ft 464 kts 16°
2026-05-05 18:35 12.77836 100.38529 19636 ft 457 kts 16°
2026-05-05 18:36 12.80887 100.39399 18865 ft 452 kts 16°
2026-05-05 18:36 12.83856 100.40248 18136 ft 446 kts 16°
2026-05-05 18:36 12.86830 100.41095 17279 ft 441 kts 16°
2026-05-05 18:36 12.89766 100.41931 16430 ft 436 kts 16°
2026-05-05 18:37 12.92680 100.42761 15644 ft 432 kts 16°
2026-05-05 18:37 12.95533 100.43576 15319 ft 417 kts 16°
2026-05-05 18:37 12.98262 100.44354 15193 ft 399 kts 15°
2026-05-05 18:37 13.00877 100.45098 15080 ft 381 kts 16°
2026-05-05 18:38 13.03378 100.45811 14963 ft 365 kts 16°
2026-05-05 18:38 13.05790 100.46499 14672 ft 356 kts 17°
2026-05-05 18:38 13.08130 100.47282 14249 ft 352 kts 24°
2026-05-05 18:38 13.09126 100.47765 14064 ft 350 kts 28°
2026-05-05 18:39 13.11173 100.49103 13613 ft 348 kts 36°
2026-05-05 18:39 13.13139 100.50531 13116 ft 346 kts 36°
2026-05-05 18:39 13.15101 100.51948 12649 ft 343 kts 36°
2026-05-05 18:39 13.17048 100.53352 12184 ft 341 kts 36°
2026-05-05 18:40 13.18981 100.54746 11744 ft 339 kts 36°
2026-05-05 18:40 13.20899 100.56128 11321 ft 336 kts 36°
2026-05-05 18:40 13.22807 100.57507 10875 ft 334 kts 36°
2026-05-05 18:40 13.24700 100.58876 10462 ft 332 kts 36°
2026-05-05 18:41 13.26584 100.60239 10064 ft 330 kts 36°
2026-05-05 18:41 13.28440 100.61581 9881 ft 320 kts 36°
2026-05-05 18:41 13.30198 100.62852 9709 ft 300 kts 36°
2026-05-05 18:41 13.31877 100.64066 9209 ft 292 kts 36°
2026-05-05 18:42 13.33530 100.65260 8633 ft 289 kts 36°
2026-05-05 18:42 13.35162 100.66440 8049 ft 286 kts 36°
2026-05-05 18:42 13.36787 100.67614 7471 ft 284 kts 36°
2026-05-05 18:42 13.38399 100.68779 6906 ft 282 kts 36°
2026-05-05 18:43 13.39999 100.69937 6354 ft 280 kts 35°
2026-05-05 18:43 13.41588 100.71088 5778 ft 279 kts 36°
2026-05-05 18:43 13.43164 100.72229 5217 ft 276 kts 36°
2026-05-05 18:43 13.44728 100.73362 4680 ft 274 kts 36°
2026-05-05 18:44 13.46280 100.74484 4105 ft 272 kts 36°
2026-05-05 18:44 13.47819 100.75598 3563 ft 270 kts 36°
2026-05-05 18:44 13.49438 100.76539 3106 ft 265 kts 19°
2026-05-05 18:44 13.51202 100.77157 3002 ft 270 kts 19°
2026-05-05 18:45 13.52987 100.77796 3008 ft 272 kts 19°
2026-05-05 18:45 13.54768 100.78441 3009 ft 271 kts 19°
2026-05-05 18:45 13.56550 100.79083 3009 ft 271 kts 19°
2026-05-05 18:45 13.58334 100.79723 3008 ft 271 kts 19°
2026-05-05 18:46 13.60116 100.80361 3004 ft 271 kts 19°
2026-05-05 18:46 13.61902 100.80998 3006 ft 272 kts 19°
2026-05-05 18:46 13.63659 100.81624 3007 ft 271 kts 19°
2026-05-05 18:46 13.65459 100.82266 3006 ft 270 kts 19°
2026-05-05 18:47 13.67239 100.82901 3010 ft 271 kts 19°
2026-05-05 18:47 13.68993 100.83525 3008 ft 270 kts 19°
2026-05-05 18:47 13.70769 100.84159 3006 ft 270 kts 19°
2026-05-05 18:47 13.72547 100.84792 3008 ft 270 kts 19°
2026-05-05 18:48 13.74280 100.85410 3004 ft 256 kts 19°
2026-05-05 18:48 13.75916 100.85992 3005 ft 242 kts 19°
2026-05-05 18:48 13.77494 100.86554 3008 ft 239 kts 19°
2026-05-05 18:48 13.79065 100.87113 3010 ft 239 kts 19°
2026-05-05 18:49 13.80634 100.87673 3008 ft 239 kts 19°
2026-05-05 18:49 13.82302 100.88116 3016 ft 262 kts
2026-05-05 18:49 13.84101 100.87766 3016 ft 268 kts 334°
2026-05-05 18:49 13.85538 100.86565 3015 ft 269 kts 305°
2026-05-05 18:50 13.86265 100.84824 2829 ft 265 kts 277°
2026-05-05 18:50 13.86105 100.82967 2525 ft 262 kts 248°
2026-05-05 18:50 13.85103 100.81459 2350 ft 252 kts 223°
2026-05-05 18:50 13.83808 100.80296 2233 ft 242 kts 217°
2026-05-05 18:51 13.82858 100.79732 2146 ft 235 kts 200°
2026-05-05 18:51 13.80810 100.79163 2017 ft 221 kts 194°
2026-05-05 18:51 13.79359 100.78784 1924 ft 211 kts 195°
2026-05-05 18:51 13.78420 100.78537 1788 ft 209 kts 195°
2026-05-05 18:52 13.76559 100.78047 1467 ft 200 kts 195°
2026-05-05 18:52 13.75700 100.77822 1308 ft 185 kts 195°
2026-05-05 18:52 13.74142 100.77412 1006 ft 161 kts 195°
2026-05-05 18:52 13.73442 100.77228 870 ft 154 kts 195°
2026-05-05 18:53 13.72422 100.76959 684 ft 148 kts 194°
2026-05-05 18:53 13.71441 100.76701 505 ft 144 kts 194°
2026-05-05 18:53 13.70477 100.76448 317 ft 142 kts 194°
2026-05-05 18:53 13.69521 100.76195 138 ft 142 kts 195°
2026-05-05 18:54 13.68577 100.75948 18 ft 132 kts 194°
2026-05-05 18:54 13.67910 100.75773 11 ft 57 kts 194°
2026-05-05 18:54 13.67660 100.75700 11 ft 24 kts 203°
2026-05-05 18:54 13.67552 100.75636 12 ft 15 kts 215°
2026-05-05 18:55 13.67487 100.75578 13 ft 7 kts 223°
2026-05-05 18:55 13.67460 100.75548 13 ft 0 kts 230°
2026-05-05 18:55 13.67458 100.75546 13 ft 2 kts 230°
2026-05-05 18:56 13.67458 100.75472 14 ft 9 kts 317°
2026-05-05 18:56 13.67523 100.75482 13 ft 11 kts 17°
2026-05-05 18:56 13.67605 100.75502 13 ft 14 kts 13°
2026-05-05 18:56 13.67705 100.75529 13 ft 16 kts 14°
2026-05-05 18:57 13.67823 100.75559 13 ft 19 kts 14°
2026-05-05 18:57 13.67937 100.75589 13 ft 18 kts 14°
2026-05-05 18:57 13.68066 100.75623 13 ft 21 kts 14°
2026-05-05 18:57 13.68215 100.75662 13 ft 23 kts 14°
2026-05-05 18:58 13.68361 100.75701 13 ft 15 kts 14°
2026-05-05 18:58 13.68467 100.75729 14 ft 17 kts 14°
2026-05-05 18:58 13.68590 100.75761 14 ft 20 kts 15°
2026-05-05 18:58 13.68733 100.75798 14 ft 23 kts 14°
2026-05-05 18:59 13.68895 100.75841 13 ft 26 kts 14°
2026-05-05 18:59 13.69043 100.75880 13 ft 13 kts 14°
2026-05-05 18:59 13.69111 100.75843 15 ft 13 kts 288°
2026-05-05 18:59 13.69137 100.75741 14 ft 14 kts 285°
2026-05-05 19:00 13.69128 100.75684 14 ft 8 kts 202°
2026-05-05 19:00 13.69082 100.75675 13 ft 3 kts 194°
2026-05-05 19:00 13.69073 100.75673 13 ft 0 kts 194°
2026-05-05 19:00 13.69065 100.75671 13 ft 1 kts 193°
2026-05-05 19:01 13.69064 100.75670 13 ft 0 kts 193°